FW2830 Weather Reports


time (UTC)temp
F
wind
direction
speed
knots
gust
knots
rain 1hr
in
rain 24hr
in
rain mn
in
humidity
%
barometer
mb
20260508193026 51 350 3.5 12.2 0.00 0.73 0.00 74 1001.3
20260508191530 51 4 7.0 11.3 0.00 0.73 0.00 73 1001.3
20260508190033 50 9 7.0 13.9 0.00 0.73 0.00 75 1001.2
20260508184526 51 62 5.2 12.2 0.00 0.98 0.00 73 1001.1
20260508183023 53 23 5.2 13.0 0.00 0.98 0.00 69 1001.1
20260508181542 53 4 5.2 13.0 0.00 0.98 0.00 70 1001.3
20260508180022 53 360 7.0 13.0 0.00 0.98 0.00 71 1001.3
20260508174525 53 355 8.7 13.0 0.00 0.98 0.00 68 1001.2
20260508173018 54 14 5.2 12.2 0.00 0.98 0.00 71 1001.2
20260508171515 52 23 5.2 9.6 0.00 0.98 0.00 73 1001.3
20260508170014 51 43 7.0 10.4 0.00 0.98 0.00 76 1001.5
20260508164517 50 58 3.5 10.4 0.00 0.98 0.00 78 1001.4
20260508163010 49 6 4.3 8.7 0.00 0.98 0.00 77 1001.5
20260508161509 49 33 4.3 7.8 0.00 0.98 0.00 78 1001.5
20260508160020 49 33 6.1 9.6 0.00 0.98 0.00 78 1001.5
20260508154511 50 56 3.5 8.7 0.00 0.98 0.00 77 1001.5
20260508153007 50 360 2.6 10.4 0.00 0.98 0.00 79 1001.3
20260508151507 50 355 4.3 10.4 0.00 0.98 0.00 79 1001.4
20260508150006 50 36 5.2 10.4 0.00 0.98 0.00 79 1001.6
20260508144505 50 37 2.6 10.4 0.00 0.98 0.00 82 1001.7
20260508143003 50 7 5.2 10.4 0.00 0.98 0.00 83 1001.7
20260508141509 50 335 2.6 9.6 0.00 0.98 0.00 84 1002.1
20260508140003 50 20 5.2 10.4 0.00 0.98 0.00 83 1002.0
20260508134501 50 360 2.6 7.8 0.00 0.98 0.00 86 1002.4
20260508133104 50 344 3.5 8.7 0.00 0.98 0.00 86 1002.5
20260508131607 50 11 5.2 13.0 0.00 0.98 0.00 85 1002.3
20260508130058 50 350 3.5 12.2 0.00 0.98 0.00 86 1002.0
20260508124555 49 19 3.5 7.8 0.00 0.98 0.00 91 1002.0
20260508123052 48 23 2.6 9.6 0.00 0.98 0.00 94 1001.9
20260508121557 47 12 3.5 5.2 0.00 0.98 0.00 99 1002.0
20260508120056 46 19 3.5 7.0 0.00 0.98 0.00 100 1002.2
20260508114548 45 8 1.7 4.3 0.00 0.99 0.00 100 1002.5
20260508113055 44 360 2.6 7.8 0.00 0.99 0.00 100 1002.0
20260508111556 43 5 1.7 3.5 0.00 0.99 0.00 100 1002.2
20260508110057 42 5 0.0 2.6 0.00 0.99 0.00 100 1002.4
20260508104545 41 5 0.0 2.6 0.00 1.00 0.00 100 1002.5
20260508103102 41 5 0.9 2.6 0.00 1.00 0.00 100 1002.7
20260508101548 40 5 0.0 0.0 0.00 1.00 0.00 100 1002.6
20260508100042 40 5 0.0 0.0 0.00 1.00 0.00 100 1002.4
20260508094601 40 5 0.0 0.0 0.00 1.04 0.00 100 1002.1
20260508093041 40 5 0.0 0.0 0.00 1.04 0.00 100 1001.9
20260508091539 40 5 0.0 0.0 0.00 1.04 0.00 100 1001.8
20260508090041 40 5 0.9 1.7 0.00 1.04 0.00 100 1002.1
20260508084537 40 5 0.0 1.7 0.00 1.09 0.00 100 1002.2
20260508083037 40 5 0.0 3.5 0.00 1.09 0.00 100 1001.7
20260508081533 40 5 1.7 3.5 0.00 1.09 0.00 100 1001.5
20260508080036 40 7 2.6 5.2 0.00 1.09 0.00 100 1001.4
20260508074531 40 7 0.0 3.5 0.00 1.12 0.00 100 1001.6
20260508073030 40 7 1.7 7.0 0.00 1.12 0.00 100 1001.5
20260508071529 41 342 2.6 7.8 0.00 1.12 0.00 100 1001.6
20260508070025 42 322 0.9 5.2 0.00 1.12 0.00 100 1001.7
20260508064533 42 321 1.7 5.2 0.00 1.12 0.00 100 1001.4
20260508063022 43 316 1.7 3.5 0.00 1.12 0.00 100 1001.5
20260508061519 44 316 0.9 4.3 0.00 1.12 0.00 100 1001.7
20260508060016 44 316 0.9 4.3 0.00 1.12 0.00 100 1001.6
20260508054513 45 316 1.7 5.2 0.00 1.12 0.00 100 1001.5
20260508053015 46 316 1.7 5.2 0.00 1.12 0.00 100 1001.5
20260508051503 47 316 1.7 3.5 0.00 1.12 0.00 100 1001.2
20260508050005 47 316 0.0 2.6 0.00 1.12 0.00 100 1001.2
20260508044602 48 316 0.9 2.6 0.00 1.12 0.00 100 1001.3
20260508043102 48 316 0.0 2.6 0.00 1.12 0.00 100 1001.2
20260508041557 48 316 1.7 4.3 0.00 1.12 0.00 100 1001.3
20260508040052 49 315 0.0 1.7 0.00 1.12 0.00 100 1001.4
20260508034555 49 315 0.0 1.7 0.00 1.12 0.00 100 1001.6
20260508033049 49 315 0.9 4.3 0.00 1.12 0.00 100 1001.5
20260508031547 49 315 0.9 7.8 0.00 1.12 0.00 100 1001.6
20260508030046 49 214 0.9 2.6 0.00 1.12 0.00 100 1001.8
20260508024548 48 214 0.9 3.5 0.00 1.12 1.12 100 1001.7
20260508023043 48 214 0.0 2.6 0.00 1.12 1.12 100 1001.4
20260508021546 49 214 0.0 5.2 0.00 1.12 1.12 100 1001.5
20260508020042 49 210 1.7 6.1 0.00 1.12 1.12 100 1001.5
20260508014549 49 210 2.6 7.0 0.00 1.12 1.12 100 1001.5
20260508013044 49 211 3.5 7.8 0.00 1.12 1.12 100 1001.3
20260508011542 50 211 1.7 8.7 0.00 1.12 1.12 100 1001.2
20260508010037 50 222 2.6 9.6 0.00 1.12 1.12 100 1001.4
20260508004536 50 210 4.3 8.7 0.00 1.12 1.12 100 1001.4
20260508003053 50 207 3.5 7.8 0.00 1.12 1.12 100 1001.5
20260508001534 50 215 3.5 7.0 0.00 1.12 1.12 100 1001.6
20260508000034 50 230 4.3 8.7 0.00 1.12 1.12 100 1001.7
20260507234531 50 204 5.2 8.7 0.00 1.12 1.12 100 1001.8
20260507233034 50 197 2.6 8.7 0.00 1.12 1.12 100 1001.5
20260507231530 50 210 3.5 13.0 0.00 1.12 1.12 100 1002.0
20260507230028 51 217 5.2 9.6 0.00 1.12 1.12 100 1001.8
20260507224525 51 208 4.3 13.9 0.00 1.12 1.12 100 1002.0
20260507223022 51 218 2.6 10.4 0.00 1.12 1.12 100 1001.8
20260507221523 51 206 3.5 13.0 0.01 1.12 1.12 100 1002.1
20260507220020 51 250 3.5 8.7 0.02 1.12 1.12 100 1002.3
20260507214519 51 232 3.5 10.4 0.05 1.12 1.12 100 1002.2
20260507213016 50 229 4.3 8.7 0.08 1.12 1.12 100 1002.0
20260507211516 50 204 4.3 9.6 0.17 1.11 1.11 100 1001.7
20260507210012 50 190 2.6 8.7 0.25 1.10 1.10 100 1001.8
20260507204509 50 195 2.6 9.6 0.34 1.07 1.07 100 1002.7
20260507203012 50 198 2.6 7.0 0.45 1.04 1.04 100 1002.9
20260507201504 50 196 0.9 8.7 0.46 0.94 0.94 99 1003.4
20260507200001 51 194 5.2 12.2 0.46 0.84 0.84 99 1003.8
20260507194603 51 191 4.3 11.3 0.44 0.73 0.73 99 1004.2